K5TWC Weather Reports


time (UTC)temp
F
wind
direction
speed
knots
gust
knots
rain 1hr
in
rain 24hr
in
rain mn
in
humidity
%
barometer
mb
20260502234524 77 78 0.0 0.0 0.00 0.00 0.00 35 1019.1
20260502234007 76 78 0.0 0.9 0.00 0.00 0.00 36 1019.2
20260502233511 77 80 0.0 0.9 0.00 0.00 0.00 35 1019.1
20260502233028 77 97 0.0 1.7 0.00 0.00 0.00 35 1019.3
20260502232503 77 97 0.0 2.6 0.00 0.00 0.00 35 1019.3
20260502232007 78 97 0.0 2.6 0.00 0.00 0.00 35 1019.3
20260502231520 78 310 0.0 2.6 0.00 0.00 0.00 35 1019.3
20260502231010 77 324 0.9 3.5 0.00 0.00 0.00 35 1019.3
20260502230508 77 276 0.0 5.2 0.00 0.00 0.00 35 1019.3
20260502230022 77 306 1.7 7.0 0.00 0.00 0.00 35 1019.3
20260502225506 77 333 0.9 7.0 0.00 0.00 0.00 36 1019.4
20260502225007 77 355 0.9 4.3 0.00 0.00 0.00 36 1019.3
20260502224525 76 58 0.0 2.6 0.00 0.00 0.00 36 1019.3
20260502224003 76 120 0.0 7.0 0.00 0.00 0.00 36 1019.3
20260502223503 76 58 0.9 7.0 0.00 0.00 0.00 36 1019.4
20260502223008 77 321 0.9 7.0 0.00 0.00 0.00 36 1019.4
20260502222504 77 42 1.7 8.7 0.00 0.00 0.00 36 1019.4
20260502222004 77 22 1.7 8.7 0.00 0.00 0.00 35 1019.4
20260502221512 77 300 0.0 3.5 0.00 0.00 0.00 36 1019.4
20260502221006 77 55 0.9 3.5 0.00 0.00 0.00 36 1019.4
20260502220504 77 278 0.0 3.5 0.00 0.00 0.00 35 1019.4
20260502220022 77 339 0.0 4.3 0.00 0.00 0.00 37 1019.5
20260502215506 76 315 0.0 4.3 0.00 0.00 0.00 37 1019.5
20260502215008 76 53 0.9 5.2 0.00 0.00 0.00 37 1019.5
20260502214528 77 320 0.0 7.0 0.00 0.00 0.00 36 1019.6
20260502214007 77 315 2.6 7.0 0.00 0.00 0.00 36 1019.6
20260502213508 78 339 0.0 3.5 0.00 0.00 0.00 35 1019.7
20260502213027 77 287 0.0 4.3 0.00 0.00 0.00 35 1019.6
20260502212503 77 324 0.0 4.3 0.00 0.00 0.00 36 1019.8
20260502212008 77 338 0.0 7.0 0.00 0.00 0.00 36 1019.9
20260502211520 76 298 0.0 7.0 0.00 0.00 0.00 35 1020.0
20260502211004 76 326 1.7 7.0 0.00 0.00 0.00 36 1020.0
20260502210504 76 316 0.0 5.2 0.00 0.00 0.00 37 1020.1
20260502210016 76 291 0.9 5.2 0.00 0.00 0.00 35 1020.1
20260502205504 76 105 1.7 5.2 0.00 0.00 0.00 36 1020.1
20260502205004 76 360 0.0 4.3 0.00 0.00 0.00 35 1020.2
20260502204520 77 290 0.9 4.3 0.00 0.00 0.00 36 1020.2
20260502204009 76 312 0.0 4.3 0.00 0.00 0.00 38 1020.3
20260502203509 76 309 0.0 7.0 0.00 0.00 0.00 37 1020.3
20260502203021 75 53 0.0 7.0 0.00 0.00 0.00 39 1020.4
20260502202509 75 5 0.9 7.0 0.00 0.00 0.00 37 1020.5
20260502202007 75 57 1.7 6.1 0.00 0.00 0.00 38 1020.6
20260502201525 75 80 1.7 6.1 0.00 0.00 0.00 38 1020.6
20260502201004 75 61 0.0 6.1 0.00 0.00 0.00 38 1020.6
20260502200504 75 43 0.0 7.0 0.00 0.00 0.00 38 1020.7
20260502200031 75 325 0.0 7.0 0.00 0.00 0.00 37 1020.8
20260502195511 75 341 0.9 5.2 0.00 0.00 0.00 39 1020.9
20260502195004 75 61 0.9 7.8 0.00 0.00 0.00 39 1020.9
20260502194514 74 14 2.6 7.8 0.00 0.00 0.00 38 1020.9
20260502194007 75 10 0.9 7.0 0.00 0.00 0.00 37 1020.9
20260502193507 75 44 1.7 7.0 0.00 0.00 0.00 37 1021.0
20260502193020 75 29 1.7 7.0 0.00 0.00 0.00 38 1021.0
20260502192509 75 343 1.7 7.0 0.00 0.00 0.00 39 1021.1
20260502192012 75 55 0.9 7.8 0.00 0.00 0.00 37 1021.3
20260502191526 75 360 1.7 7.8 0.00 0.00 0.00 38 1021.4
20260502191013 74 39 0.0 4.3 0.00 0.00 0.00 37 1021.3
20260502190509 74 86 0.0 5.2 0.00 0.00 0.00 37 1021.4
20260502190019 74 76 1.7 5.2 0.00 0.00 0.00 36 1021.5
20260502185507 75 87 0.0 5.2 0.00 0.00 0.00 37 1021.5
20260502185011 75 314 0.0 4.3 0.00 0.00 0.00 37 1021.6
20260502184517 75 237 0.0 5.2 0.00 0.00 0.00 37 1021.6
20260502184004 74 238 0.0 5.2 0.00 0.00 0.00 37 1021.7
20260502183506 74 292 1.7 7.8 0.00 0.00 0.00 36 1021.9
20260502183017 74 350 1.7 7.8 0.00 0.00 0.00 36 1021.9
20260502182507 75 360 2.6 5.2 0.00 0.00 0.00 37 1022.0
20260502182009 74 43 0.0 2.6 0.00 0.00 0.00 36 1022.0
20260502181522 74 360 0.0 5.2 0.00 0.00 0.00 38 1022.2
20260502181010 74 352 0.0 5.2 0.00 0.00 0.00 37 1022.2
20260502180508 74 313 1.7 5.2 0.00 0.00 0.00 37 1022.2
20260502170508 72 57 1.7 4.3 0.00 0.00 0.00 37 1022.8
20260502164015 70 346 0.0 9.6 0.00 0.00 0.00 39 1022.8
20260502163511 70 324 2.6 9.6 0.00 0.00 0.00 41 1022.8
20260502163015 70 360 0.9 7.0 0.00 0.00 0.00 41 1022.8
20260502162504 70 36 1.7 7.0 0.00 0.00 0.00 39 1022.7
20260502162007 70 340 0.9 6.1 0.00 0.00 0.00 38 1022.8
20260502161517 70 352 2.6 6.1 0.00 0.00 0.00 35 1022.8
20260502161004 70 323 0.9 5.2 0.00 0.00 0.00 35 1022.8
20260502160508 70 10 0.9 3.5 0.00 0.00 0.00 35 1022.7
20260502152010 67 53 0.0 4.3 0.00 0.00 0.00 50 1022.5
20260502151515 67 36 0.9 4.3 0.00 0.00 0.00 49 1022.4
20260502151004 66 360 0.0 3.5 0.00 0.00 0.00 54 1022.5
20260502150504 66 315 0.9 5.2 0.00 0.00 0.00 54 1022.4
20260502130502 55 269 0.0 1.7 0.00 0.00 0.00 82 1021.7
20260502123503 52 260 0.0 1.7 0.00 0.00 0.00 90 1021.3
20260502123005 52 259 0.0 1.7 0.00 0.00 0.00 91 1021.2
20260502122503 51 360 0.0 1.7 0.00 0.00 0.00 91 1021.1
20260502122007 51 259 0.0 0.0 0.00 0.00 0.00 90 1020.9
20260502121504 51 259 0.0 0.0 0.00 0.00 0.00 90 1020.9
20260502121004 51 259 0.0 0.0 0.00 0.00 0.00 90 1020.8
20260502120504 51 259 0.0 0.0 0.00 0.00 0.00 90 1020.7
20260502115503 51 259 0.0 0.9 0.00 0.00 0.00 90 1020.5
20260502115006 51 259 0.0 0.9 0.00 0.00 0.00 89 1020.4
20260502114506 51 259 0.0 0.0 0.00 0.00 0.00 89 1020.3
20260502114003 51 259 0.0 0.0 0.00 0.00 0.00 89 1020.3
20260502113503 52 259 0.0 0.9 0.00 0.00 0.00 89 1020.3
20260502113013 52 259 0.0 0.9 0.00 0.00 0.00 89 1020.2
20260502112502 52 259 0.0 1.7 0.00 0.00 0.00 89 1020.0
20260502112004 52 259 0.0 1.7 0.00 0.00 0.00 89 1020.1
20260502111506 52 259 0.0 0.9 0.00 0.00 0.00 89 1020.1
20260502111002 52 259 0.0 2.6 0.00 0.00 0.00 90 1020.1
20260502110502 52 259 0.0 2.6 0.00 0.00 0.00 89 1019.9
20260502110004 52 258 0.0 2.6 0.00 0.00 0.00 89 1020.0
20260502105504 52 258 0.0 2.6 0.00 0.00 0.00 90 1019.9
20260502105004 51 257 0.0 1.7 0.00 0.00 0.00 89 1019.8
20260502104506 51 257 0.0 1.7 0.00 0.00 0.00 90 1019.6
20260502104003 51 257 0.0 1.7 0.00 0.00 0.00 90 1019.5
20260502103503 51 255 0.0 1.7 0.00 0.00 0.00 90 1019.6
20260502103004 51 255 0.0 1.7 0.00 0.00 0.00 90 1019.5
20260502102504 51 254 0.0 0.9 0.00 0.00 0.00 89 1019.4
20260502102004 51 255 0.0 0.0 0.00 0.00 0.00 89 1019.4
20260502101509 52 255 0.0 0.9 0.00 0.00 0.00 89 1019.5
20260502101003 52 255 0.0 0.9 0.00 0.00 0.00 89 1019.5
20260502100508 52 255 0.0 0.9 0.00 0.00 0.00 89 1019.5
20260502091506 52 240 0.0 1.7 0.00 0.00 0.00 89 1019.4
20260502091002 52 240 0.0 0.9 0.00 0.00 0.00 89 1019.4
20260502090503 52 240 0.0 0.9 0.00 0.00 0.00 89 1019.4
20260502071509 52 159 0.0 0.0 0.00 0.00 0.00 90 1019.3
20260502071007 52 159 0.0 0.0 0.00 0.00 0.00 90 1019.4
20260502070504 52 159 0.0 0.0 0.00 0.00 0.00 90 1019.4
20260502070018 52 159 0.0 0.9 0.00 0.00 0.00 90 1019.5
20260502065503 52 159 0.0 0.9 0.00 0.00 0.00 90 1019.5
20260502065007 52 159 0.0 0.9 0.00 0.00 0.00 90 1019.6
20260502064525 52 142 0.0 0.0 0.00 0.00 0.00 90 1019.6
20260502064004 53 142 0.0 0.0 0.00 0.00 0.00 90 1019.7
20260502063504 53 142 0.0 0.0 0.00 0.00 0.00 89 1019.6
20260502063012 53 141 0.0 0.0 0.00 0.00 0.00 89 1019.6
20260502062505 53 141 0.0 0.0 0.00 0.00 0.00 89 1019.5
20260502062006 53 141 0.0 0.0 0.00 0.00 0.00 89 1019.5
20260502061509 53 141 0.0 0.0 0.00 0.00 0.00 89 1019.5
20260502061001 53 141 0.0 0.0 0.00 0.00 0.00 89 1019.5
20260502060505 53 141 0.0 0.0 0.00 0.00 0.00 89 1019.5
20260502060012 54 141 0.0 0.0 0.00 0.00 0.00 89 1019.4
20260502055505 54 141 0.0 0.0 0.00 0.00 0.00 89 1019.6
20260502055007 54 141 0.0 0.0 0.00 0.00 0.00 88 1019.5
20260502054513 54 141 0.0 0.0 0.00 0.00 0.00 88 1019.5
20260502054004 54 141 0.0 0.0 0.00 0.00 0.00 88 1019.5
20260502053504 54 141 0.0 0.0 0.00 0.00 0.00 87 1019.4
20260502053012 54 141 0.0 0.0 0.00 0.00 0.00 87 1019.5
20260502052502 54 141 0.0 0.0 0.00 0.00 0.00 87 1019.5
20260502052002 54 141 0.0 0.0 0.00 0.00 0.00 87 1019.6
20260502051512 55 142 0.0 0.0 0.00 0.00 0.00 87 1019.6
20260502051005 55 141 0.0 0.0 0.00 0.00 0.00 87 1019.5
20260502050503 55 142 0.0 0.0 0.00 0.00 0.00 87 1019.5
20260502050012 55 141 0.0 0.0 0.00 0.00 0.00 87 1019.5
20260502045503 55 141 0.0 0.0 0.00 0.00 0.00 87 1019.5
20260502045003 55 141 0.0 0.0 0.00 0.00 0.00 87 1019.5
20260502044512 55 141 0.0 0.0 0.00 0.00 0.00 86 1019.4
20260502044002 55 141 0.0 0.0 0.00 0.00 0.00 86 1019.4
20260502043505 56 141 0.0 0.0 0.00 0.00 0.00 86 1019.4
20260502043015 56 141 0.0 0.0 0.00 0.00 0.00 85 1019.5
20260502042507 56 141 0.0 0.0 0.00 0.00 0.00 84 1019.4
20260502042007 56 141 0.0 0.0 0.00 0.00 0.00 84 1019.3
20260502041515 56 141 0.0 0.0 0.00 0.00 0.00 84 1019.3
20260502041005 57 141 0.0 0.0 0.00 0.00 0.00 84 1019.3
20260502040506 57 141 0.0 0.0 0.00 0.00 0.00 83 1019.4
20260502040018 57 141 0.0 0.0 0.00 0.00 0.00 83 1019.3
20260502035505 57 141 0.0 0.0 0.00 0.00 0.00 82 1019.4
20260502035006 58 141 0.0 0.0 0.00 0.00 0.00 82 1019.3
20260502034516 58 141 0.0 0.0 0.00 0.00 0.00 82 1019.4
20260502034006 58 141 0.0 0.0 0.00 0.00 0.00 81 1019.5
20260502033505 58 141 0.0 0.0 0.00 0.00 0.00 80 1019.4
20260502033015 58 141 0.0 0.0 0.00 0.00 0.00 78 1019.3
20260502032503 59 141 0.0 0.0 0.00 0.00 0.00 78 1019.3
20260502032006 59 141 0.0 0.0 0.00 0.00 0.00 77 1019.2
20260502031514 59 141 0.0 0.0 0.00 0.00 0.00 77 1019.2
20260502031007 59 141 0.0 0.0 0.00 0.00 0.00 77 1019.1
20260502030507 59 141 0.0 0.0 0.00 0.00 0.00 78 1019.1
20260502030015 60 141 0.0 0.0 0.00 0.00 0.00 78 1019.1
20260502025503 60 141 0.0 0.0 0.00 0.00 0.00 78 1019.2
20260502025003 60 141 0.0 0.0 0.00 0.00 0.00 78 1019.1
20260502024508 60 141 0.0 0.0 0.00 0.00 0.00 77 1019.1
20260502024003 60 141 0.0 0.0 0.00 0.00 0.00 76 1018.9
20260502023503 60 141 0.0 0.0 0.00 0.00 0.00 73 1018.9
20260502023012 60 141 0.0 0.0 0.00 0.00 0.00 73 1018.8
20260502022504 60 141 0.0 0.0 0.00 0.00 0.00 73 1018.8
20260502022003 60 141 0.0 0.0 0.00 0.00 0.00 73 1018.8
20260502021518 60 141 0.0 0.0 0.00 0.00 0.00 74 1018.7
20260502021003 60 141 0.0 0.0 0.00 0.00 0.00 73 1018.6
20260502020502 61 140 0.0 0.0 0.00 0.00 0.00 73 1018.5
20260502020009 61 140 0.0 0.0 0.00 0.00 0.00 73 1018.3
20260502015504 61 140 0.0 0.0 0.00 0.00 0.00 73 1018.0
20260502015007 61 141 0.0 0.0 0.00 0.00 0.00 73 1018.0
20260502014504 61 140 0.0 0.0 0.00 0.00 0.00 73 1017.9
20260502014003 61 140 0.0 0.0 0.00 0.00 0.00 73 1017.8
20260502013504 61 140 0.0 0.0 0.00 0.00 0.00 73 1017.8
20260502013008 61 141 0.0 0.9 0.00 0.00 0.00 73 1017.7
20260502012503 61 140 0.0 0.9 0.00 0.00 0.00 73 1017.6
20260502012010 62 140 0.0 0.9 0.00 0.00 0.00 73 1017.5
20260502011535 62 140 0.0 1.7 0.00 0.00 0.00 72 1017.4
20260502011004 62 141 0.0 1.7 0.00 0.00 0.00 71 1017.3
20260502010504 62 141 0.0 0.9 0.00 0.00 0.00 71 1017.2
20260502010022 62 141 0.0 0.9 0.00 0.00 0.00 70 1017.2
20260502005506 62 141 0.0 0.9 0.00 0.00 0.00 70 1017.1
20260502005005 62 141 0.0 0.9 0.00 0.00 0.00 69 1017.2
20260502004504 62 141 0.0 0.0 0.00 0.00 0.00 69 1017.1
20260502004003 62 140 0.0 0.9 0.00 0.00 0.00 69 1017.2
20260502003503 62 140 0.0 0.9 0.00 0.00 0.00 69 1017.1
20260502003007 62 139 0.0 0.9 0.00 0.00 0.00 69 1017.0
20260502002508 62 138 0.0 0.0 0.00 0.00 0.00 69 1016.9
20260502002006 62 138 0.0 0.9 0.00 0.00 0.00 69 1016.8
20260502001515 62 138 0.0 0.9 0.00 0.00 0.00 68 1016.7
20260502001008 63 138 0.0 2.6 0.00 0.00 0.00 68 1016.5
20260502000504 63 138 0.0 2.6 0.00 0.00 0.00 68 1016.4
20260502000017 63 138 0.0 2.6 0.00 0.00 0.00 68 1016.4
20260501235511 63 146 0.0 3.5 0.00 0.00 0.00 68 1016.4
20260501235007 63 146 0.9 3.5 0.00 0.00 0.00 68 1016.4